Location: Unspecified
(0.0000°N, 0.0000°E)
Time: 09:06:48
(UTC+00:00)

ISS - Visible Passes

Search period start: 18 February 2018 00:00
Search period end: 28 February 2018 00:00
Orbit: 403 x 407 km, 51.6° (Epoch: 19 February)

Date Brightness Start Highest point End Pass type
(mag) Time Alt. Az. Time Alt. Az. Time Alt. Az.
18 Feb -2.6 18:54:53 10° NW 18:58:00 45° SW 19:01:10 10° SSE visible
20 Feb -1.8 05:36:54 10° S 05:39:52 31° SE 05:42:49 10° ENE visible
20 Feb -0.4 18:48:37 10° W 18:50:01 12° SW 18:51:23 10° SSW visible
21 Feb -0.5 04:46:11 10° SSE 04:47:41 13° SE 04:49:10 10° E visible
22 Feb -3.7 05:28:35 10° SW 05:31:47 53° NW 05:34:59 10° NNE visible
23 Feb -2.8 04:39:45 46° ESE 04:39:45 46° ESE 04:42:46 10° NE visible
24 Feb -1.7 05:24:24 13° NW 05:24:24 13° NW 05:25:27 10° NNW visible
